[[{"header":{"parameterUnit":"m.s-1","parameterCategory":1,"la1":30.2991,"la2":30.254,"lo1":-89.0895,"lo2":-89.0444,"dy":0.0017,"dx":0.0017,"nx":28,"ny":28,"refTime":"2024-07-14T09:00:00:Z","depth":0,"parameterNumber":2,"parameterNumberName":"U-component_of_WINDS"},"data":[0,0,0,0,0,0,0,0,0,0,0,0,0,0,0,0,0,0,0,0,0,0,0,0,0,0,0,0,0,0,0,0,0,0,0,0,0,0,0,0,0,0,0,0,0,0,0,0,0,0,0,0,0,0,0,0,0,0,3.2848,3.2847,0,3.2789,3.2789,3.2788,3.2678,3.2675,3.2673,3.2671,3.2615,3.2616,3.2616,0,0,0,0,0,0,0,0,0,0,0,0,0,3.2871,3.2871,3.2848,3.2847,3.2847,3.2789,3.2789,3.2788,3.2678,3.2675,3.2673,3.267,3.2615,3.2615,3.2616,0,0,0,0,0,0,0,0,0,0,0,0,0,3.2841,3.2871,3.2848,3.2785,3.2779,3.279,3.2789,3.2788,3.2678,3.2675,3.2672,3.2669,3.2615,3.2615,3.2616,3.2685,0,0,3.2618,3.2619,0,0,0,0,0,0,0,0,3.2843,3.2841,3.2795,3.2789,3.2782,3.2737,3.2776,3.2753,3.2679,3.2717,3.2671,3.2667,3.2659,3.2656,3.2652,3.2683,3.268,3.2619,3.2619,3.2619,3.262,0,0,0,0,0,0,0,3.2845,3.2843,3.2825,3.2794,3.2787,3.2761,3.2753,3.2771,3.2707,3.2713,3.2705,3.2699,3.2655,3.2651,3.265,3.268,3.2619,3.2619,3.262,3.262,3.2767,3.277,0,0,0,0,0,0,3.2856,3.2845,3.2827,3.2823,3.2805,3.2763,3.2755,3.2755,3.2706,3.2695,3.2702,3.2694,3.2652,3.2649,3.2647,3.2726,3.2619,3.262,3.262,3.2763,3.2767,3.2771,0,0,0,0,0,0,3.2857,3.2855,3.2829,3.2832,3.2827,3.2766,3.2768,3.2756,3.2752,3.2698,3.2686,3.271,3.2649,3.2646,3.2677,3.2722,3.262,3.2621,3.2759,3.2764,3.2769,3.2883,0,0,0,0,0,0,3.2858,3.2856,3.2881,3.2833,3.2827,3.2859,3.277,3.2757,3.2753,3.2743,3.2702,3.2692,3.2646,3.2676,3.2678,3.2721,3.2622,3.2755,3.2761,3.2768,3.2875,3.2892,3.2906,0,0,0,0,0,3.2859,3.2916,3.2882,3.2881,3.2856,3.2861,3.2858,3.2802,3.2757,3.2782,3.2748,3.2694,3.2717,3.268,3.2681,3.2726,3.2752,3.276,3.2767,3.2868,3.2889,3.2906,0,0,0,0,0,0,3.2971,3.2908,3.2871,3.2913,3.2893,3.2843,3.2872,3.2825,3.2818,3.2809,3.2742,3.2734,3.2774,3.2753,3.2713,3.2791,3.2726,3.2734,3.2803,3.2822,3.2837,3.2841,3.2622,0,0,0,0,0,3.3,3.3009,3.2954,3.2997,3.2989,3.2933,3.2933,3.2892,3.2869,3.2861,3.2828,3.2809,3.2813,3.2816,3.2816,3.2872,3.2863,3.2904,3.2919,3.2932,3.294,3.2969,3.2987,3.2796,3.2796,3.2796,0,0,3.3061,3.3028,3.3038,3.3019,3.2998,3.301,3.2926,3.2942,3.295,3.2863,3.289,3.2866,3.2841,3.2885,3.2903,3.2869,3.2991,3.2942,3.2952,3.2953,3.2979,3.2997,3.3013,3.2802,3.2801,3.28,0,0,3.3178,3.3154,3.3187,3.3169,3.3139,3.3102,3.311,3.3067,3.3048,3.3073,3.3009,3.3019,3.3026,3.3011,3.3004,3.3119,3.3069,3.3121,3.3201,3.3231,3.3246,3.3259,3.33,3.3316,3.3129,3.3129,3.3129,0,3.3258,3.3272,3.3211,3.3231,3.3225,3.3146,3.3181,3.3167,3.314,3.3138,3.31,3.3108,3.3086,3.3126,3.3154,3.3151,3.316,3.3124,3.3248,3.3261,3.3272,3.3311,3.3327,3.3136,3.3135,3.3134,3.3134,0,3.3372,3.3383,3.3414,3.3388,3.3386,3.3414,3.3359,3.3365,3.3325,3.3292,3.3321,3.3291,3.3285,3.3291,3.3253,3.3327,3.3307,3.326,3.3193,3.3297,3.3333,3.3347,3.3145,3.3142,3.3141,3.3139,0,0,3.3556,3.3498,3.351,3.3498,3.3461,3.3469,3.3494,3.3487,3.3493,3.3478,3.3498,3.3507,3.3464,3.3456,3.3416,3.3442,3.3536,3.3392,3.339,3.342,3.3618,3.3653,3.3671,3.3504,3.3506,3.3508,3.362,0,3.3665,3.3702,3.3649,3.37,3.371,3.3637,3.3659,3.364,3.3611,3.3617,3.3585,3.3592,3.3534,3.3529,3.3552,3.352,3.3575,3.3511,3.3523,3.3524,3.3531,3.369,3.3727,3.3833,3.3633,3.3636,3.3637,0,3.3796,3.3787,3.3838,3.3799,3.3801,3.3822,3.3812,3.3818,3.3796,3.3773,3.3766,3.3718,3.3742,3.3678,3.3711,3.3669,3.3671,3.3656,3.3659,3.3658,3.3587,3.3693,3.3866,3.3882,3.3659,3.3657,3.3655,0,3.3926,3.3926,3.3957,3.3949,3.3905,3.3921,3.3904,3.3878,3.3877,3.3869,3.3869,3.3864,3.3862,3.3861,3.3813,3.3771,3.3853,3.3785,3.3836,3.3837,3.3856,3.3855,3.4032,3.3858,3.3858,3.3858,3.3857,0,3.4053,3.4087,3.4015,3.4034,3.4071,3.4011,3.405,3.4025,3.4004,3.4018,3.3956,3.3971,3.3907,3.3917,3.388,3.3914,3.3913,3.3897,3.3886,3.3902,3.3904,3.3902,3.3894,3.3862,3.3861,3.386,3.3859,0,3.4204,3.4156,3.4185,3.4141,3.4131,3.416,3.4123,3.414,3.4108,3.4127,3.4128,3.4078,3.4085,3.4038,3.4038,3.4013,3.4065,3.4042,3.4072,3.4065,3.4119,3.4115,3.43,3.4322,3.4135,3.4137,3.4138,0,3.4287,3.4312,3.4271,3.4275,3.4261,3.4269,3.4268,3.4212,3.4214,3.4191,3.4212,3.4214,3.4213,3.4229,3.4194,3.4193,3.417,3.4235,3.417,3.4185,3.4172,3.4171,3.4173,3.4249,3.4251,3.4253,3.4255,0,3.4442,3.4417,3.4418,3.4411,3.4412,3.4404,3.4392,3.44,3.4339,3.4345,3.4352,3.4351,3.435,3.4354,3.4347,3.4331,3.4284,3.4276,3.4288,3.4304,3.432,3.4312,3.411,3.4272,3.427,3.4269,3.4268,3.4267,3.4561,3.458,3.4554,3.4558,3.4543,3.4534,3.4548,3.4518,3.4522,3.4516,3.4483,3.4496,3.4476,3.4461,3.445,3.4461,3.443,3.4447,3.4451,3.4456,3.4466,3.4319,3.4459,3.4459,3.4458,3.4458,3.4458,0,3.4712,3.4692,3.4696,3.4681,3.4685,3.4639,3.4625,3.4631,3.4643,3.4627,3.4628,3.4637,3.4641,3.4606,3.4606,3.4622,3.46,3.4624,3.4622,3.4619,3.4494,3.4483,3.4641,3.4641,3.4641,3.4641,3.4641,3.4641,3.4791,3.4821,3.4795,3.4818,3.4798,3.481,3.4805,3.4798,3.4785,3.4797,3.48,3.4777,3.4754,3.4753,3.4755,3.4745,3.4748,3.4779,3.4762,3.4645,3.4628,3.4611,3.4601,3.478,3.4781,3.4886,3.4887,3.4888]},{"header":{"parameterUnit":"m.s-1","parameterCategory":1,"la1":30.2991,"la2":30.254,"lo1":-89.0895,"lo2":-89.0444,"dy":0.0017,"dx":0.0017,"nx":28,"ny":28,"refTime":"2024-07-14T09:00:00:Z","depth":0,"parameterNumber":3,"parameterNumberName":"V-component_of_WINDS"},"data":[0,0,0,0,0,0,0,0,0,0,0,0,0,0,0,0,0,0,0,0,0,0,0,0,0,0,0,0,0,0,0,0,0,0,0,0,0,0,0,0,0,0,0,0,0,0,0,0,0,0,0,0,0,0,0,0,0,0,1.1208,1.121,0,1.1407,1.1409,1.1412,1.149,1.1489,1.1489,1.1488,1.1689,1.1695,1.17,0,0,0,0,0,0,0,0,0,0,0,0,0,1.0893,1.0898,1.1208,1.121,1.1213,1.1407,1.1409,1.1412,1.149,1.1489,1.1489,1.1488,1.1687,1.1694,1.1701,0,0,0,0,0,0,0,0,0,0,0,0,0,1.1054,1.09,1.1208,1.1275,1.1283,1.1406,1.141,1.1413,1.149,1.1489,1.1489,1.1488,1.1685,1.1693,1.1702,1.1771,0,0,1.1728,1.1732,0,0,0,0,0,0,0,0,1.1045,1.1066,1.1263,1.1271,1.128,1.1423,1.1372,1.1533,1.149,1.1412,1.1488,1.1488,1.1601,1.1616,1.1655,1.178,1.1789,1.1729,1.1735,1.1738,1.1741,0,0,0,0,0,0,0,1.1034,1.1058,1.1287,1.1266,1.1276,1.1295,1.1317,1.1403,1.1508,1.1418,1.1425,1.1447,1.1605,1.1647,1.1661,1.1792,1.1729,1.1737,1.1742,1.1746,1.1984,1.1986,0,0,0,0,0,0,1.1012,1.1048,1.128,1.1293,1.1158,1.1301,1.1326,1.1378,1.1507,1.1526,1.1448,1.145,1.1632,1.165,1.1668,1.1758,1.1738,1.1746,1.1751,1.1983,1.1985,1.1986,0,0,0,0,0,0,1.1005,1.1032,1.1272,1.1172,1.1204,1.1307,1.1365,1.1382,1.1424,1.1529,1.1548,1.1471,1.1632,1.1656,1.1745,1.1766,1.175,1.1758,1.1982,1.1984,1.1985,1.1938,0,0,0,0,0,0,1.0995,1.1029,1.1057,1.1172,1.1209,1.1347,1.1366,1.1387,1.1439,1.1444,1.1556,1.1574,1.1634,1.1732,1.1754,1.1778,1.1765,1.1981,1.1983,1.1985,1.1938,1.1938,1.1938,0,0,0,0,0,1.0984,1.1035,1.1058,1.1085,1.1246,1.1348,1.1369,1.1437,1.144,1.1469,1.1537,1.157,1.176,1.174,1.1766,1.1793,1.198,1.1982,1.1985,1.1939,1.1938,1.1938,0,0,0,0,0,0,1.0917,1.1051,1.1078,1.1168,1.1246,1.1361,1.1399,1.1435,1.1513,1.1514,1.1595,1.162,1.1703,1.1757,1.1732,1.1867,1.1872,1.188,1.1829,1.1829,1.1829,1.1814,1.1772,0,0,0,0,0,1.0913,1.0986,1.1098,1.1166,1.1204,1.1295,1.1341,1.1388,1.1472,1.1505,1.1579,1.1658,1.1736,1.1786,1.1863,1.1947,1.1972,1.1978,1.1977,1.1977,1.1982,1.2031,1.2035,1.1994,1.1994,1.1994,0,0,1.0905,1.0987,1.1028,1.1155,1.1221,1.1294,1.1322,1.1397,1.1452,1.1516,1.1606,1.1663,1.1757,1.1844,1.1886,1.1891,1.2,1.198,1.1978,1.1985,1.2034,1.2038,1.2041,1.1996,1.1996,1.1995,0,0,1.0928,1.0997,1.1062,1.1128,1.1229,1.1289,1.1304,1.1414,1.1455,1.1547,1.1597,1.1662,1.1794,1.1859,1.1909,1.1957,1.1991,1.198,1.1979,1.2026,1.2029,1.2032,1.205,1.2055,1.1986,1.1985,1.1985,0,1.0905,1.1017,1.1091,1.1164,1.1219,1.1282,1.1348,1.1408,1.1527,1.1563,1.1568,1.1736,1.1803,1.1907,1.1919,1.1957,1.1977,1.1968,1.2023,1.2027,1.2031,1.2048,1.2055,1.1983,1.1984,1.1984,1.1984,0,1.0984,1.1061,1.1102,1.1218,1.1277,1.1345,1.1429,1.148,1.1521,1.158,1.1672,1.1756,1.1851,1.1879,1.1919,1.1989,1.1989,1.2007,1.2014,1.2031,1.2049,1.2057,1.1981,1.1981,1.1982,1.1982,0,0,1.097,1.1127,1.114,1.1194,1.131,1.137,1.1442,1.1537,1.1579,1.1659,1.1722,1.1832,1.185,1.1907,1.1955,1.1996,1.203,1.201,1.2013,1.2011,1.2112,1.2098,1.2104,1.2053,1.2054,1.2056,1.2104,0,1.1008,1.1141,1.121,1.1313,1.1385,1.1447,1.1509,1.1586,1.1644,1.1713,1.1775,1.1853,1.187,1.1905,1.1949,1.2016,1.2051,1.2014,1.2111,1.2114,1.2086,1.2114,1.2099,1.2141,1.2111,1.2113,1.2114,0,1.1071,1.1153,1.1263,1.1372,1.1405,1.146,1.1553,1.1618,1.1707,1.1746,1.181,1.1857,1.1935,1.1936,1.2044,1.2017,1.2061,1.21,1.2103,1.2115,1.2115,1.2127,1.2156,1.2162,1.2125,1.2124,1.2123,0,1.105,1.1187,1.1272,1.1316,1.1444,1.1482,1.1537,1.1625,1.1678,1.1759,1.1794,1.1882,1.193,1.1997,1.2067,1.2061,1.2168,1.2174,1.2202,1.22,1.2222,1.2219,1.2258,1.2249,1.2249,1.2249,1.2248,0,1.1086,1.1151,1.1264,1.1316,1.1391,1.1469,1.1541,1.1601,1.1679,1.1743,1.18,1.1859,1.1948,1.2017,1.2072,1.2153,1.2174,1.2207,1.2221,1.2203,1.2198,1.2233,1.2232,1.225,1.225,1.225,1.2249,0,1.1075,1.1153,1.125,1.1364,1.1394,1.1445,1.1542,1.1594,1.1655,1.1735,1.1758,1.1853,1.1938,1.2014,1.2126,1.2163,1.2246,1.2263,1.2216,1.2224,1.2247,1.2244,1.231,1.2323,1.2303,1.2303,1.2304,0,1.1093,1.1145,1.1265,1.1313,1.1368,1.1444,1.1499,1.1577,1.1632,1.1738,1.1777,1.1866,1.1942,1.2075,1.2153,1.2239,1.2259,1.2276,1.2272,1.2252,1.226,1.2256,1.2262,1.2275,1.2275,1.2275,1.2275,0,1.1116,1.1153,1.123,1.1322,1.1387,1.1462,1.1539,1.1574,1.1667,1.1726,1.1814,1.1873,1.1988,1.2076,1.2171,1.2227,1.2266,1.2275,1.2286,1.2268,1.2239,1.2256,1.2215,1.2274,1.2274,1.2274,1.2274,1.2274,1.1121,1.117,1.1264,1.1348,1.1415,1.1486,1.1541,1.161,1.1685,1.1786,1.1828,1.1917,1.2005,1.2138,1.2193,1.2264,1.2271,1.2287,1.2291,1.2294,1.2291,1.2227,1.2281,1.2281,1.2282,1.2282,1.2282,0,1.1148,1.1211,1.1288,1.1396,1.1462,1.1495,1.1582,1.1635,1.1714,1.1794,1.1868,1.1969,1.2055,1.214,1.2231,1.2271,1.2291,1.2292,1.229,1.2302,1.2279,1.226,1.2274,1.2274,1.2274,1.2274,1.2274,1.2274,1.117,1.1256,1.1303,1.1423,1.1486,1.1576,1.1623,1.1688,1.1752,1.1864,1.1936,1.1992,1.2074,1.2171,1.2251,1.2273,1.2304,1.23,1.2327,1.2304,1.2304,1.2303,1.2287,1.2306,1.2306,1.2345,1.2346,1.2346]}]]